Theta_e
357 363 364 365 365 366 366 364 364 363 361 360 360 361 361 361 361 363 363 363 363 360 359 359 358 359 357 354 354 355 357 357 355 354 353 353 352 351 350 349 349 347 351
360 363 363 364 365 366 366 364 363 362 361 361 361 362 362 360 361 363 363 364 362 358 357 357 356 358 356 355 355 355 356 356 356 354 354 353 351 351 350 350 351 349 349
360 363 359 364 365 366 365 364 362 361 361 361 362 362 361 361 361 362 363 363 360 356 356 356 355 354 355 354 354 355 356 356 355 355 355 353 349 353 352 351 350 349 349
361 361 355 362 364 365 364 364 363 363 363 362 362 361 360 361 361 363 363 362 359 355 356 356 356 355 354 354 353 354 354 355 354 354 352 347 346 354 352 350 350 350 350
360 357 357 362 362 364 364 363 362 362 362 361 361 361 360 361 361 362 362 362 359 355 357 357 356 356 355 354 354 354 354 353 353 352 354 350 349 352 352 350 350 350 350
356 355 360 361 361 362 363 362 362 361 361 361 361 360 361 361 361 362 362 362 360 356 356 357 357 357 357 357 357 356 355 355 355 355 353 353 354 350 352 351 351 351 350
354 355 357 361 361 361 362 362 361 360 360 360 360 361 361 361 361 361 361 360 358 357 355 356 356 356 355 354 353 353 354 354 353 352 352 352 351 353 353 353 352 352 351
353 355 355 360 360 360 360 360 359 359 359 360 360 361 361 361 361 361 360 358 356 355 354 353 353 353 353 351 351 351 351 352 353 352 350 350 351 351 353 356 356 355 353
354 352 354 353 358 360 360 359 358 358 358 358 358 359 359 360 360 360 359 358 357 355 354 353 352 351 350 350 350 350 350 351 350 351 349 347 348 343 352 356 357 357 356
353 352 351 352 352 353 356 359 358 357 357 356 357 358 358 358 358 358 357 358 356 354 352 352 352 352 350 350 350 350 350 350 345 345 347 344 346 344 346 353 359 358 357
352 352 351 349 350 350 350 355 358 358 357 356 356 356 354 349 353 355 354 356 355 353 351 351 351 351 350 351 351 351 350 342 342 343 340 346 345 345 347 351 354 358 359
349 351 351 351 351 350 348 353 352 352 351 349 348 351 345 346 348 348 354 356 356 354 352 351 351 351 349 339 344 348 341 338 339 338 337 345 345 345 347 351 354 355 359
350 351 351 353 355 352 351 352 350 351 352 352 353 352 351 350 352 350 352 353 355 354 351 351 349 347 343 343 340 340 338 338 337 335 338 344 345 344 347 352 355 355 355
351 353 353 355 356 356 353 354 353 352 353 353 354 358 355 351 352 349 346 346 349 347 348 348 343 345 346 347 344 342 341 341 339 339 343 347 346 346 348 351 355 356 356
352 354 355 357 359 359 359 356 356 355 355 355 355 358 355 352 353 352 351 348 346 345 344 345 345 345 346 345 343 343 343 345 346 344 343 350 348 349 349 351 354 357 358
354 356 357 357 360 360 361 362 359 359 358 357 356 356 356 355 355 352 353 351 349 348 345 343 343 345 345 343 342 347 351 352 350 351 344 348 351 351 352 352 355 358 360
354 357 358 359 360 361 359 360 361 359 357 356 355 359 358 358 357 357 352 351 351 351 350 347 347 346 345 344 348 351 352 353 354 355 354 349 349 351 352 354 355 358 358
354 355 358 357 359 361 361 360 359 357 358 357 357 358 360 359 358 358 352 351 351 351 349 345 343 344 345 345 349 350 352 353 354 354 354 354 354 353 356 354 351 352 356
354 355 357 359 358 360 362 360 360 359 357 356 357 356 360 358 357 357 353 353 356 351 348 345 343 347 347 349 349 350 350 350 352 351 352 352 353 352 351 349 343 345 346
353 354 357 359 361 360 357 359 358 356 355 355 355 356 360 359 358 357 354 355 355 350 349 348 350 347 347 348 344 344 347 349 348 349 348 346 344 350 349 351 346 342 341
353 353 354 355 359 357 355 353 352 352 352 353 354 356 357 355 355 357 354 358 360 357 358 356 353 351 346 348 346 342 339 345 346 343 342 343 339 343 345 342 341 343 335
352 353 353 355 358 356 354 355 354 353 352 353 354 356 355 355 356 355 355 353 354 350 351 352 353 349 346 348 343 340 333 335 338 338 337 335 335 332 336 335 335 333 333
350 352 352 355 357 357 358 354 352 352 352 349 350 352 352 353 355 353 351 349 350 349 345 349 349 348 342 345 346 336 325 325 329 335 330 332 331 330 333 331 331 332 332
346 351 352 354 355 354 356 353 352 347 346 349 352 351 353 349 349 348 346 346 346 347 347 344 343 343 341 339 339 340 338 333 322 321 331 333 331 329 329 330 329 330 332
343 345 348 350 352 351 352 352 349 348 348 346 345 345 346 343 342 340 342 342 341 341 342 340 339 341 344 341 339 337 336 333 331 324 322 326 331 333 333 329 328 330 333
340 342 344 346 347 349 350 349 350 349 346 343 343 340 338 339 336 335 336 337 336 336 335 335 336 337 331 332 335 338 334 335 329 329 326 327 327 331 331 331 335 335 337
Wind_Speed
15 19 15 14 14 14 16 20 18 17 16 17 17 16 16 16 16 16 15 13 12 12 12 12 12 12 13 13 12 11 10 10 10 10 9 8 8 7 6 5 5 7 7
18 20 16 16 15 16 17 19 18 18 17 17 16 15 15 15 16 14 13 12 12 12 12 12 12 12 13 13 12 11 11 10 9 9 8 8 6 6 5 5 6 7 5
20 19 19 16 16 16 16 18 19 18 18 17 16 15 15 15 15 13 12 12 12 12 12 11 12 12 12 12 12 11 10 8 8 8 8 9 10 7 7 6 5 3 4
19 19 20 16 17 16 17 18 18 17 17 17 16 15 14 14 14 14 12 11 12 12 12 11 11 11 11 11 11 10 9 8 7 7 10 4 4 10 7 7 7 6 6
19 19 18 17 18 18 18 19 19 18 18 17 16 15 15 13 13 13 11 11 11 12 11 11 10 11 11 10 9 8 8 7 6 8 2 4 4 13 8 8 8 8 7
20 19 20 16 17 18 17 18 18 18 18 17 16 15 15 14 12 11 10 9 10 11 10 9 8 8 8 7 6 6 6 5 7 10 3 2 7 12 9 9 9 7 7
19 18 20 17 17 16 18 19 19 18 17 17 16 15 14 13 13 11 10 9 9 9 9 8 7 6 6 5 5 4 4 5 10 3 3 4 5 10 8 9 10 10 10
19 19 19 17 17 16 16 16 17 18 18 17 17 15 14 13 12 11 10 9 8 8 7 6 5 4 4 3 3 4 5 7 9 7 6 6 6 1 8 10 11 11 12
18 18 17 18 16 15 15 15 15 16 16 17 17 16 16 14 12 11 10 10 8 8 7 6 5 4 3 4 4 5 6 8 11 8 7 6 10 3 8 11 12 13 13
17 18 18 18 18 16 16 15 16 16 15 15 16 16 14 13 12 12 10 9 8 7 7 6 6 5 5 5 5 5 6 10 13 12 7 6 5 4 9 10 13 15 15
15 17 18 18 17 16 16 14 13 15 15 14 14 13 12 11 12 13 7 13 9 8 7 6 6 5 5 9 9 9 8 8 9 7 7 9 3 8 11 11 12 15 16
19 18 17 17 17 16 13 15 14 13 12 12 13 14 11 10 10 10 10 10 10 8 7 7 7 7 9 8 8 12 8 7 7 7 7 6 4 10 12 13 12 14 15
18 14 16 15 15 15 12 11 8 8 8 8 12 12 10 8 8 8 7 8 9 12 9 12 11 9 9 6 6 5 6 8 6 6 8 4 7 11 13 13 13 14 15
17 17 16 16 14 13 9 10 10 9 9 8 10 13 8 7 8 8 6 8 8 7 9 9 7 8 9 10 9 9 9 9 7 6 7 9 9 11 14 14 14 15 16
19 18 17 16 14 13 11 10 9 9 9 10 10 12 9 9 8 8 7 6 6 7 8 9 9 8 10 11 11 11 12 11 11 7 7 9 9 11 14 16 15 17 17
16 16 17 17 15 13 12 11 9 8 9 8 9 9 11 8 7 8 7 7 7 7 7 8 8 9 10 10 11 11 10 11 11 11 8 8 13 13 13 17 18 18 17
13 14 14 14 14 15 14 12 10 9 9 8 8 10 13 12 9 9 7 6 6 7 8 8 8 9 10 10 11 10 10 11 11 11 10 10 8 16 14 15 16 15 14
15 15 15 14 15 15 13 10 9 8 8 7 7 8 12 10 9 10 5 6 7 6 6 8 8 9 8 9 10 8 8 8 10 10 9 10 11 8 7 10 7 10 11
15 15 16 15 15 15 13 9 8 4 5 4 6 7 9 9 11 8 5 4 7 6 6 8 7 9 8 8 10 8 9 9 9 9 9 9 8 9 5 1 7 11 12
15 14 13 12 12 12 8 7 8 7 7 7 7 6 5 7 8 6 7 7 8 8 8 9 9 9 9 9 10 11 11 10 9 8 9 6 9 6 7 5 8 5 13
15 14 13 12 12 10 9 10 8 8 7 6 5 5 5 5 4 5 7 8 7 8 9 10 10 11 10 11 9 12 13 9 10 7 9 7 8 7 8 6 2 4 5
16 16 14 13 12 11 8 7 5 5 4 4 4 4 3 4 4 5 6 7 8 9 10 11 12 11 11 9 7 11 12 11 10 4 5 6 10 3 9 4 3 5 12
15 15 13 13 13 11 8 6 5 5 3 5 5 5 4 5 6 6 6 6 6 7 9 9 9 12 11 10 10 4 4 4 4 4 5 7 6 4 5 3 5 7 10
10 10 12 12 12 10 10 8 7 5 4 2 1 4 1 3 3 3 4 5 6 7 6 7 7 8 8 10 5 7 7 3 3 6 2 7 7 7 6 4 4 8 11
11 11 11 12 11 11 9 7 8 5 4 5 4 5 5 5 5 5 5 5 5 5 7 7 8 6 8 9 7 6 6 6 7 6 12 10 5 8 9 7 10 10 12
12 12 12 12 11 9 8 7 6 7 5 5 4 5 4 3 5 7 6 6 6 6 6 6 6 6 5 6 6 5 5 7 7 7 11 13 12 11 7 8 9 9 9
Wind_Direction
151 140 141 135 133 136 146 143 142 142 142 144 146 147 151 147 142 139 135 128 123 123 123 123 123 124 131 131 129 132 132 135 135 134 135 135 138 140 145 143 204 166 124
143 148 145 139 139 141 148 144 142 141 144 145 146 148 150 148 145 138 132 129 127 127 128 130 130 133 136 136 137 139 142 146 146 142 148 157 156 162 170 181 246 89 145
145 149 156 143 140 143 144 142 140 141 141 143 147 149 150 149 140 135 136 135 132 132 133 136 138 140 142 142 141 143 147 151 152 159 190 207 162 176 186 201 226 171 181
146 151 155 148 140 142 139 136 137 138 140 142 145 147 145 144 139 137 139 138 140 137 139 141 142 141 146 146 146 148 156 164 170 187 215 151 171 159 200 217 220 212 208
154 155 147 153 145 145 144 140 139 138 137 138 142 145 145 145 140 140 142 141 146 143 146 146 146 147 151 149 147 152 160 171 187 226 215 181 258 152 195 217 219 225 227
158 154 141 151 145 145 145 140 138 139 139 140 142 146 145 144 138 132 133 139 149 147 151 151 150 150 154 157 160 171 184 202 230 235 232 159 265 124 185 220 242 257 224
158 154 156 153 148 151 151 147 144 143 141 141 144 148 145 141 136 135 138 144 150 151 151 152 155 160 164 175 184 200 229 241 263 262 272 259 244 146 190 220 232 240 246
158 151 153 155 152 153 151 150 148 148 147 148 147 148 144 140 136 136 138 146 147 145 146 153 160 172 180 197 223 253 267 278 260 270 279 271 92 161 220 228 228 232 238
161 162 159 164 158 153 150 151 152 153 153 153 151 149 147 145 143 143 147 152 149 146 147 151 164 183 205 231 244 256 275 285 283 285 276 265 119 174 240 238 234 234 235
170 165 166 166 168 168 161 161 161 158 157 157 152 151 151 151 153 156 155 161 159 158 162 166 176 190 208 228 242 262 271 270 259 266 261 256 87 273 264 258 245 240 238
180 170 173 170 171 175 167 165 162 159 158 159 159 159 156 180 178 164 172 144 172 177 181 187 195 208 226 231 225 229 244 253 266 258 272 103 141 268 267 264 256 247 244
184 178 176 179 172 179 170 161 176 169 175 178 180 173 189 182 187 189 159 168 185 190 197 198 205 217 224 242 197 203 231 259 267 271 270 119 210 262 266 264 260 253 245
183 184 181 184 177 186 177 168 180 174 176 186 186 181 201 182 182 203 183 192 206 199 210 192 195 217 229 257 244 258 257 252 255 256 264 171 241 264 267 264 259 254 250
188 187 186 181 183 197 182 182 180 186 184 191 193 190 188 198 182 205 213 208 211 210 225 229 220 221 210 227 245 249 251 251 254 258 264 192 232 252 264 267 262 260 250
192 188 189 181 184 191 199 188 196 203 192 195 191 196 200 205 196 200 208 228 231 231 231 243 242 230 221 225 232 231 241 247 253 250 252 176 213 237 257 261 258 256 256
191 189 189 189 184 189 201 196 194 203 193 207 191 198 217 220 201 213 214 226 238 246 256 251 247 252 244 237 230 240 251 260 250 252 248 236 194 214 233 255 255 256 258
189 193 191 186 189 198 202 199 203 193 207 206 213 200 211 215 206 238 221 233 243 255 261 262 267 251 263 260 255 242 249 257 259 258 260 259 245 197 209 235 253 261 261
191 189 187 189 189 197 202 201 211 201 199 210 213 209 214 218 236 220 229 248 257 257 265 274 256 262 262 265 272 264 286 273 264 270 270 267 265 272 200 217 258 278 263
185 184 185 189 194 197 198 204 206 184 230 203 225 222 206 215 220 240 248 264 263 260 258 263 269 264 270 280 270 258 264 265 267 272 280 281 276 284 260 172 304 284 276
184 183 181 183 189 189 181 198 200 193 203 211 212 219 186 213 219 234 244 256 255 256 255 253 256 258 260 266 278 273 275 278 265 266 269 269 271 251 282 265 255 305 287
190 178 181 182 178 177 180 194 199 204 201 205 219 205 206 211 226 247 257 255 270 275 266 268 273 264 263 263 278 271 266 240 258 270 290 279 281 270 291 269 305 299 306
183 185 178 180 174 188 184 197 199 201 193 218 185 163 175 180 212 250 274 282 287 290 283 278 273 274 267 264 271 284 284 296 293 287 249 249 252 223 260 247 280 270 258
183 178 173 173 171 178 162 144 146 127 156 191 185 189 192 232 248 279 285 281 284 276 281 284 274 271 276 271 271 274 288 246 316 280 268 257 260 255 248 244 268 267 249
173 165 158 162 161 153 168 165 176 199 194 103 136 69 96 20 325 315 300 324 318 302 301 295 292 294 283 274 247 208 243 265 259 306 204 280 256 241 239 212 245 263 253
134 146 147 157 161 151 169 170 167 176 155 147 148 117 75 88 59 47 16 10 342 327 348 334 325 318 304 286 292 281 242 233 253 253 286 300 261 229 233 202 202 227 239
134 136 139 144 141 149 153 152 165 152 160 139 97 133 112 99 91 45 48 33 28 359 9 332 333 2 348 337 336 298 266 271 273 260 264 278 278 286 282 251 241 242 233